GW0614 Weather Reports


Display with metric or nautical units.
time (UTC)temp
F
wind
direction
speed
MPH
gust
MPH
rain 1hr
in
rain 24hr
in
rain mn
in
humidity
%
barometer
mb
20260905184521 77 333 1.0 2.0 0.00 0.00 0.00 68 1014.8
20260905184019 79 15 1.0 1.0 0.00 0.00 0.00 68 1014.6
20260905183514 77 340 1.0 2.0 0.00 0.00 0.00 69 1014.7
20260905183009 77 20 0.0 0.0 0.00 0.00 0.00 71 1014.7
20260905182508 76 295 3.0 5.0 0.00 0.00 0.00 72 1014.7
20260905182003 75 328 1.0 2.0 0.00 0.00 0.00 74 1014.9
20260905181458 76 330 2.0 3.0 0.00 0.00 0.00 72 1014.9
20260905180957 75 340 0.0 0.0 0.00 0.00 0.00 74 1014.9
20260905180452 74 346 0.0 0.0 0.00 0.00 0.00 78 1014.8
20260905175947 75 341 2.0 2.0 0.00 0.00 0.00 78 1014.8
20260905175447 74 13 0.0 0.0 0.00 0.00 0.00 77 1014.9
20260905174943 73 13 0.0 0.0 0.00 0.00 0.00 77 1015.0
20260905174437 75 13 0.0 0.0 0.00 0.00 0.00 79 1015.0
20260905173933 75 4 2.0 2.0 0.00 0.00 0.00 74 1014.8
20260905173430 75 334 2.0 2.0 0.00 0.00 0.00 74 1014.8
20260905172925 74 315 2.0 2.0 0.00 0.00 0.00 75 1014.8
20260905172422 74 311 0.0 1.0 0.00 0.00 0.00 75 1015.0
20260905171919 73 355 0.0 0.0 0.00 0.00 0.00 75 1015.2
20260905171415 74 315 0.0 1.0 0.00 0.00 0.00 74 1015.0
20260905170911 75 343 2.0 2.0 0.00 0.00 0.00 73 1015.0
20260905170407 75 18 0.0 0.0 0.00 0.00 0.00 77 1015.1
20260905165906 74 343 0.0 0.0 0.00 0.00 0.00 79 1014.9
20260905165401 75 344 0.0 1.0 0.00 0.00 0.00 76 1015.1
20260905164856 74 343 0.0 0.0 0.00 0.00 0.00 74 1014.9
20260905164351 74 355 0.0 0.0 0.00 0.00 0.00 75 1015.1
20260905163846 75 305 0.0 1.0 0.00 0.00 0.00 77 1015.1
20260905163337 74 346 0.0 0.0 0.00 0.00 0.00 82 1014.9
20260905162833 75 317 2.0 2.0 0.00 0.00 0.00 78 1014.7
20260905162332 73 358 1.0 1.0 0.00 0.00 0.00 78 1014.9
20260905161827 74 331 0.0 1.0 0.00 0.00 0.00 81 1014.8
20260905161326 73 355 0.0 0.0 0.00 0.00 0.00 78 1014.8
20260905160825 73 10 1.0 1.0 0.00 0.00 0.00 84 1014.9
20260905160319 72 357 0.0 0.0 0.00 0.00 0.00 83 1014.9
20260905155813 73 337 1.0 1.0 0.00 0.00 0.00 83 1014.9
20260905155307 73 2 0.0 0.0 0.00 0.00 0.00 79 1014.9
20260905154801 73 320 0.0 1.0 0.00 0.00 0.00 81 1015.0
20260905154257 72 319 3.0 3.0 0.00 0.00 0.00 81 1014.9
20260905153752 70 4 0.0 0.0 0.00 0.00 0.00 82 1014.9
20260905153248 70 345 0.0 0.0 0.00 0.00 0.00 86 1015.0
20260905152742 71 335 0.0 0.0 0.00 0.00 0.00 82 1015.2
20260905152237 74 358 1.0 2.0 0.00 0.00 0.00 77 1015.2
20260905151736 72 65 0.0 0.0 0.00 0.00 0.00 80 1015.1
20260905151233 72 332 1.0 2.0 0.00 0.00 0.00 81 1014.8
20260905150732 71 328 3.0 3.0 0.00 0.00 0.00 84 1015.0
20260905150232 70 343 1.0 1.0 0.00 0.00 0.00 84 1015.2
20260905145729 72 6 1.0 1.0 0.00 0.00 0.00 82 1015.2
20260905145224 72 6 1.0 2.0 0.00 0.00 0.00 84 1014.9
20260905144723 71 328 0.0 0.0 0.00 0.00 0.00 82 1015.1
20260905144218 72 317 0.0 0.0 0.00 0.00 0.00 84 1014.9
20260905143717 71 355 0.0 0.0 0.00 0.00 0.00 85 1015.0
20260905143212 70 327 2.0 3.0 0.00 0.00 0.00 83 1015.1
20260905142710 73 1 1.0 1.0 0.00 0.00 0.00 81 1015.1
20260905142205 72 358 0.0 0.0 0.00 0.00 0.00 85 1015.1
20260905141701 71 356 1.0 1.0 0.00 0.00 0.00 88 1015.1
20260905141156 69 357 1.0 1.0 0.00 0.00 0.00 87 1014.9
20260905140651 69 1 1.0 1.0 0.00 0.00 0.00 92 1015.1
20260905140145 67 7 1.0 1.0 0.00 0.00 0.00 90 1015.0
20260905135640 67 15 1.0 1.0 0.00 0.00 0.00 95 1015.0
20260905135136 66 317 1.0 2.0 0.00 0.00 0.00 97 1015.5
20260905134630 66 31 1.0 2.0 0.00 0.00 0.00 96 1015.4
20260905134129 65 358 0.0 0.0 0.00 0.00 0.00 99 1015.4
20260905133625 64 5 0.0 0.0 0.00 0.00 0.00 99 1015.5
20260905133125 64 357 0.0 0.0 0.00 0.00 0.00 99 1015.5
20260905132624 63 6 0.0 0.0 0.00 0.00 0.00 99 1015.5
20260905132119 63 17 0.0 0.0 0.00 0.00 0.00 99 1015.5
20260905131614 62 17 0.0 0.0 0.00 0.00 0.00 99 1015.6
20260905131110 63 346 0.0 0.0 0.00 0.00 0.00 99 1015.6
20260905130609 62 346 0.0 0.0 0.00 0.00 0.00 99 1015.5
20260905125603 62 356 0.0 0.0 0.00 0.00 0.00 99 1015.5
20260905125059 61 4 0.0 0.0 0.00 0.00 0.00 99 1015.4
20260905124555 61 27 0.0 0.0 0.00 0.00 0.00 99 1015.4
20260905124051 60 38 0.0 0.0 0.00 0.00 0.00 99 1015.5
20260905123546 60 38 0.0 0.0 0.00 0.00 0.00 99 1015.5
20260905123043 60 38 0.0 0.0 0.00 0.00 0.00 99 1015.6
20260905122543 60 38 0.0 0.0 0.00 0.00 0.00 99 1015.4
20260905122037 59 38 0.0 0.0 0.00 0.00 0.00 99 1015.5
20260905121532 59 38 0.0 0.0 0.00 0.00 0.00 99 1015.5
20260905121027 58 38 0.0 0.0 0.00 0.00 0.00 99 1015.5
20260905120526 57 38 0.0 0.0 0.00 0.00 0.00 99 1015.4
20260905120022 57 38 0.0 0.0 0.00 0.00 0.00 99 1015.4
20260905115521 56 38 0.0 0.0 0.00 0.00 0.00 99 1015.2
20260905115016 56 38 0.0 0.0 0.00 0.00 0.00 99 1015.1
20260905114515 56 38 0.0 0.0 0.00 0.00 0.00 99 1015.1
20260905114014 55 38 0.0 0.0 0.00 0.00 0.00 99 1014.9
20260905113509 55 38 0.0 0.0 0.00 0.00 0.00 99 1014.8
20260905113005 55 38 0.0 0.0 0.00 0.00 0.00 99 1014.6
20260905112500 55 38 0.0 0.0 0.00 0.00 0.00 99 1014.7
20260905111955 55 38 0.0 0.0 0.00 0.00 0.00 99 1014.8
20260905111450 55 38 0.0 0.0 0.00 0.00 0.00 99 1014.7
20260905110949 55 38 0.0 0.0 0.00 0.00 0.00 99 1014.7
20260905110449 55 38 0.0 0.0 0.00 0.00 0.00 99 1014.6
20260905105948 55 38 0.0 0.0 0.00 0.00 0.00 99 1014.6
20260905105443 55 38 0.0 0.0 0.00 0.00 0.00 99 1014.6
20260905104942 55 38 0.0 0.0 0.00 0.00 0.00 99 1014.4
20260905104439 55 38 0.0 0.0 0.00 0.00 0.00 99 1014.4
20260905103933 55 38 0.0 0.0 0.00 0.00 0.00 99 1014.3
20260905103428 55 38 0.0 0.0 0.00 0.00 0.00 99 1014.3
20260905102924 55 38 0.0 0.0 0.00 0.00 0.00 99 1014.1
20260905102420 55 38 0.0 0.0 0.00 0.00 0.00 99 1014.2
20260905101915 55 38 0.0 0.0 0.00 0.00 0.00 99 1014.3
20260905101414 55 38 0.0 0.0 0.00 0.00 0.00 99 1014.0
20260905100909 55 38 0.0 0.0 0.00 0.00 0.00 99 1013.8
20260905100405 55 38 0.0 0.0 0.00 0.00 0.00 99 1014.2
20260905095904 55 38 0.0 0.0 0.00 0.00 0.00 99 1013.9
20260905095358 55 38 0.0 0.0 0.00 0.00 0.00 99 1013.9
20260905094859 55 38 0.0 0.0 0.00 0.00 0.00 99 1014.0
20260905094354 55 38 0.0 0.0 0.00 0.00 0.00 99 1013.9
20260905093853 55 38 0.0 0.0 0.00 0.00 0.00 99 1014.0
20260905093349 55 38 0.0 0.0 0.00 0.00 0.00 99 1013.9
20260905092845 55 38 0.0 0.0 0.00 0.00 0.00 99 1014.1
20260905092345 55 38 0.0 0.0 0.00 0.00 0.00 99 1014.1
20260905091840 55 38 0.0 0.0 0.00 0.00 0.00 99 1014.1
20260905091339 55 38 0.0 0.0 0.00 0.00 0.00 99 1013.9
20260905090838 55 38 0.0 0.0 0.00 0.00 0.00 99 1014.0
20260905090335 55 38 0.0 0.0 0.00 0.00 0.00 99 1013.9
20260905085834 55 38 0.0 0.0 0.00 0.00 0.00 99 1013.9
20260905085328 55 38 0.0 0.0 0.00 0.00 0.00 99 1013.9
20260905084824 55 38 0.0 0.0 0.00 0.00 0.00 99 1013.7
20260905084323 55 38 0.0 0.0 0.00 0.00 0.00 99 1014.1
20260905083818 55 38 0.0 0.0 0.00 0.00 0.00 99 1013.7
20260905083314 55 38 0.0 0.0 0.00 0.00 0.00 99 1014.2
20260905082809 55 38 0.0 0.0 0.00 0.00 0.00 99 1013.9
20260905082307 55 38 0.0 0.0 0.00 0.00 0.00 99 1013.8
20260905081806 55 38 0.0 0.0 0.00 0.00 0.00 99 1013.9
20260905081301 55 38 0.0 0.0 0.00 0.00 0.00 99 1013.9
20260905080759 55 38 0.0 0.0 0.00 0.00 0.00 99 1014.1
20260905080254 55 38 0.0 0.0 0.00 0.00 0.00 99 1013.9
20260905075752 55 38 0.0 0.0 0.00 0.00 0.00 99 1014.1
20260905075247 56 38 0.0 0.0 0.00 0.00 0.00 99 1014.1
20260905074745 56 38 0.0 0.0 0.00 0.00 0.00 99 1014.0
20260905074242 56 38 0.0 0.0 0.00 0.00 0.00 99 1014.1
20260905073737 56 38 0.0 0.0 0.00 0.00 0.00 99 1014.2
20260905073233 56 38 0.0 0.0 0.00 0.00 0.00 99 1014.1
20260905072732 56 38 0.0 0.0 0.00 0.00 0.00 99 1014.1
20260905072227 56 38 0.0 0.0 0.00 0.00 0.00 99 1014.2
20260905071724 56 38 0.0 0.0 0.00 0.00 0.00 99 1014.2
20260905071220 56 38 0.0 0.0 0.00 0.00 0.00 99 1014.3
20260905070714 56 38 0.0 0.0 0.00 0.00 0.00 99 1014.5
20260905070211 56 38 0.0 0.0 0.00 0.00 0.00 99 1014.4
20260905065709 56 38 0.0 0.0 0.00 0.00 0.00 99 1014.3
20260905065203 56 38 0.0 0.0 0.00 0.00 0.00 99 1014.5
20260905064659 56 38 0.0 0.0 0.00 0.00 0.00 99 1014.4
20260905064154 56 38 0.0 0.0 0.00 0.00 0.00 99 1014.5
20260905063653 56 38 0.0 0.0 0.00 0.00 0.00 99 1014.6
20260905063149 56 38 0.0 0.0 0.00 0.00 0.00 99 1014.6
20260905062645 56 38 0.0 0.0 0.00 0.00 0.00 99 1014.6
20260905062144 56 38 0.0 0.0 0.00 0.00 0.00 99 1014.7
20260905061639 56 38 0.0 0.0 0.00 0.00 0.00 99 1014.6
20260905061138 57 38 0.0 0.0 0.00 0.00 0.00 99 1014.8
20260905060633 57 38 0.0 0.0 0.00 0.00 0.00 99 1014.7
20260905060130 57 38 0.0 0.0 0.00 0.00 0.00 99 1014.8
20260905055628 57 38 0.0 0.0 0.00 0.00 0.00 99 1014.6
20260905055124 57 38 0.0 0.0 0.00 0.00 0.00 99 1014.8
20260905054620 57 38 0.0 0.0 0.00 0.00 0.00 99 1014.7
20260905054114 57 38 0.0 0.0 0.00 0.00 0.00 99 1015.0
20260905053609 57 38 0.0 0.0 0.00 0.00 0.00 99 1015.1
20260905053104 57 38 0.0 0.0 0.00 0.00 0.00 99 1015.1
20260905052603 57 38 0.0 0.0 0.00 0.00 0.00 99 1014.9
20260905052058 57 38 0.0 0.0 0.00 0.00 0.00 99 1015.1
20260905051554 57 38 0.0 0.0 0.00 0.00 0.00 99 1015.0
20260905051050 57 38 0.0 0.0 0.00 0.00 0.00 99 1015.4
20260905050546 57 38 0.0 0.0 0.00 0.00 0.00 99 1015.2
20260905050042 57 38 0.0 0.0 0.00 0.00 0.00 99 1014.9
20260905045536 57 38 0.0 0.0 0.00 0.00 0.00 99 1015.1
20260905045027 57 38 0.0 0.0 0.00 0.00 0.00 99 1015.5
20260905044526 57 38 0.0 0.0 0.00 0.00 0.00 99 1015.5
20260905044021 58 38 0.0 0.0 0.00 0.00 0.00 99 1015.5
20260905043520 58 38 0.0 0.0 0.00 0.00 0.00 99 1015.5
20260905043015 58 38 0.0 0.0 0.00 0.00 0.00 99 1015.2
20260905042508 58 38 0.0 0.0 0.00 0.00 0.00 99 1015.2
20260905042004 58 38 0.0 0.0 0.00 0.00 0.00 99 1015.5
20260905041500 58 38 0.0 0.0 0.00 0.00 0.00 99 1015.7
20260905040955 58 38 0.0 0.0 0.00 0.00 0.00 99 1015.4
20260905040454 58 38 0.0 0.0 0.00 0.00 0.00 99 1015.5
20260905035953 58 38 0.0 0.0 0.00 0.00 0.00 99 1015.2
20260905035448 58 38 0.0 0.0 0.00 0.00 0.00 99 1015.2
20260905034946 58 38 0.0 0.0 0.00 0.00 0.00 99 1015.2
20260905034441 58 38 0.0 0.0 0.00 0.00 0.00 99 1015.2
20260905033940 59 38 0.0 0.0 0.00 0.00 0.00 99 1015.2
20260905033440 59 38 0.0 0.0 0.00 0.00 0.00 99 1015.0
20260905032934 59 38 0.0 0.0 0.00 0.00 0.00 99 1015.2
20260905032430 59 38 0.0 0.0 0.00 0.00 0.00 99 1015.1
20260905031924 59 38 0.0 0.0 0.00 0.00 0.00 99 1014.9
20260905031420 59 38 0.0 0.0 0.00 0.00 0.00 99 1015.0
20260905030915 59 38 0.0 0.0 0.00 0.00 0.00 99 1015.1
20260905030411 59 38 0.0 0.0 0.00 0.00 0.00 99 1015.1
20260905025910 59 38 0.0 0.0 0.00 0.00 0.00 99 1015.2
20260905025405 60 38 0.0 0.0 0.00 0.00 0.00 99 1015.2
20260905024902 60 38 0.0 0.0 0.00 0.00 0.00 99 1015.4
20260905024356 60 38 0.0 0.0 0.00 0.00 0.00 99 1015.4
20260905023852 60 38 0.0 0.0 0.00 0.00 0.00 99 1015.2
20260905023347 60 38 0.0 0.0 0.00 0.00 0.00 99 1015.1
20260905022846 60 38 0.0 0.0 0.00 0.00 0.00 99 1015.4
20260905022341 60 19 0.0 0.0 0.00 0.00 0.00 99 1015.5
20260905021836 60 19 0.0 0.0 0.00 0.00 0.00 99 1015.1
20260905021331 60 19 0.0 0.0 0.00 0.00 0.00 99 1015.5
20260905020826 60 19 0.0 0.0 0.00 0.00 0.00 99 1015.2
20260905020321 60 19 0.0 0.0 0.00 0.00 0.00 99 1015.0
20260905015820 60 19 0.0 0.0 0.00 0.00 0.00 99 1015.1
20260905015320 61 19 0.0 0.0 0.00 0.00 0.00 99 1015.1
20260905014819 61 19 0.0 0.0 0.00 0.00 0.00 99 1015.0
20260905014315 61 19 0.0 0.0 0.00 0.00 0.00 99 1015.1
20260905013810 61 19 0.0 0.0 0.00 0.00 0.00 99 1015.2
20260905013306 62 19 0.0 0.0 0.00 0.00 0.00 99 1015.1
20260905012801 62 19 0.0 0.0 0.00 0.00 0.00 99 1015.2
20260905012256 62 19 0.0 0.0 0.00 0.00 0.00 99 1015.4
20260905011753 62 19 0.0 0.0 0.00 0.00 0.00 99 1015.5
20260905011249 62 19 0.0 0.0 0.00 0.00 0.00 99 1015.2
20260905010743 62 19 0.0 0.0 0.00 0.00 0.00 99 1015.2
20260905010239 62 19 0.0 0.0 0.00 0.00 0.00 99 1015.2
20260905005736 62 19 0.0 0.0 0.00 0.00 0.00 99 1015.5
20260905005231 62 19 0.0 0.0 0.00 0.00 0.00 99 1015.4
20260905004730 62 19 0.0 0.0 0.00 0.00 0.00 99 1015.6
20260905004226 62 19 0.0 0.0 0.00 0.00 0.00 99 1015.2
20260905003725 62 19 0.0 0.0 0.00 0.00 0.00 99 1015.5
20260905003221 62 19 0.0 0.0 0.00 0.00 0.00 99 1015.4
20260905002717 62 19 0.0 0.0 0.00 0.00 0.00 99 1015.4
20260905002217 63 19 0.0 0.0 0.00 0.00 0.00 99 1015.1
20260905001712 63 19 0.0 0.0 0.00 0.00 0.00 99 1015.0
20260905001211 63 19 0.0 0.0 0.00 0.00 0.00 99 1015.1
20260905000706 63 19 0.0 0.0 0.00 0.00 0.00 99 1014.8
20260905000204 63 19 0.0 0.0 0.00 0.00 0.00 99 1014.8
20260904235702 63 19 0.0 0.0 0.00 0.00 0.00 99 1014.7
20260904235157 64 19 0.0 0.0 0.00 0.00 0.00 99 1014.6
20260904234652 64 19 0.0 0.0 0.00 0.00 0.00 99 1014.8
20260904234148 64 19 0.0 0.0 0.00 0.00 0.00 99 1014.8
20260904233643 64 19 0.0 0.0 0.00 0.00 0.00 99 1014.8
20260904233138 65 19 0.0 0.0 0.00 0.00 0.00 99 1014.7
20260904232635 65 19 0.0 0.0 0.00 0.00 0.00 99 1014.6
20260904232131 66 19 0.0 0.0 0.00 0.00 0.00 99 1014.6
20260904231626 66 19 0.0 0.0 0.00 0.00 0.00 99 1014.6
20260904231121 67 19 0.0 0.0 0.00 0.00 0.00 99 1014.5
20260904230621 67 19 0.0 0.0 0.00 0.00 0.00 98 1014.7
20260904230116 68 19 0.0 0.0 0.00 0.00 0.00 97 1014.4
20260904225613 69 19 0.0 0.0 0.00 0.00 0.00 95 1014.4
20260904225108 69 19 0.0 0.0 0.00 0.00 0.00 93 1014.2
20260904224603 71 18 0.0 0.0 0.00 0.00 0.00 91 1014.7
20260904224058 72 18 0.0 0.0 0.00 0.00 0.00 90 1014.4
20260904223557 73 18 0.0 0.0 0.00 0.00 0.00 86 1014.2
20260904223053 73 18 0.0 0.0 0.00 0.00 0.00 85 1014.4
20260904222549 72 18 0.0 0.0 0.00 0.00 0.00 87 1014.4
20260904222044 71 18 0.0 0.0 0.00 0.00 0.00 92 1014.3
20260904221538 71 18 0.0 0.0 0.00 0.00 0.00 92 1014.2
20260904221033 71 18 0.0 0.0 0.00 0.00 0.00 93 1014.3
20260904220533 72 18 0.0 0.0 0.00 0.00 0.00 91 1014.2
20260904220028 72 18 0.0 0.0 0.00 0.00 0.00 92 1014.1
20260904215528 72 18 0.0 0.0 0.00 0.00 0.00 90 1014.0
20260904215024 73 18 0.0 0.0 0.00 0.00 0.00 89 1014.1
20260904214519 73 18 0.0 0.0 0.00 0.00 0.00 88 1014.1
20260904214015 74 18 0.0 0.0 0.00 0.00 0.00 87 1014.2
20260904213512 74 18 0.0 0.0 0.00 0.00 0.00 82 1013.9
20260904213010 75 18 0.0 0.0 0.00 0.00 0.00 80 1014.3
20260904212509 76 18 0.0 0.0 0.00 0.00 0.00 78 1014.1
20260904212004 76 56 0.0 1.0 0.00 0.00 0.00 74 1014.1
20260904211458 77 327 0.0 0.0 0.00 0.00 0.00 75 1014.1
20260904210954 76 19 0.0 0.0 0.00 0.00 0.00 71 1014.1
20260904210453 77 341 0.0 0.0 0.00 0.00 0.00 77 1014.2
20260904205949 77 341 1.0 1.0 0.00 0.00 0.00 71 1014.4
20260904205444 77 333 0.0 0.0 0.00 0.00 0.00 71 1014.4
20260904204941 79 23 0.0 0.0 0.00 0.00 0.00 77 1014.4
20260904204436 80 330 2.0 2.0 0.00 0.00 0.00 68 1014.5
20260904203932 79 343 2.0 2.0 0.00 0.00 0.00 66 1014.6
20260904203429 79 346 0.0 0.0 0.00 0.00 0.00 68 1014.4
20260904202925 78 1 0.0 0.0 0.00 0.00 0.00 70 1014.6
20260904202420 77 339 0.0 1.0 0.00 0.00 0.00 72 1014.6
20260904201916 77 30 0.0 0.0 0.00 0.00 0.00 76 1014.6
20260904201411 78 6 0.0 0.0 0.00 0.00 0.00 76 1014.5
20260904200907 79 6 0.0 0.0 0.00 0.00 0.00 72 1014.4
20260904200405 79 357 0.0 0.0 0.00 0.00 0.00 72 1014.6
20260904195900 80 341 0.0 0.0 0.00 0.00 0.00 69 1014.4
20260904195358 82 333 0.0 0.0 0.00 0.00 0.00 62 1014.3
20260904194853 82 332 2.0 2.0 0.00 0.00 0.00 66 1014.4
20260904194352 82 2 0.0 0.0 0.00 0.00 0.00 64 1014.6
20260904193848 83 303 1.0 1.0 0.00 0.00 0.00 60 1014.6
20260904193343 81 352 0.0 0.0 0.00 0.00 0.00 69 1014.7
20260904192838 80 12 1.0 1.0 0.00 0.00 0.00 63 1014.6
20260904192333 83 298 0.0 0.0 0.00 0.00 0.00 64 1014.6
20260904191830 84 301 3.0 3.0 0.00 0.00 0.00 60 1014.6
20260904191326 82 340 0.0 0.0 0.00 0.00 0.00 67 1014.6
20260904190823 82 342 1.0 1.0 0.00 0.00 0.00 64 1014.6
20260904190318 83 334 2.0 2.0 0.00 0.00 0.00 61 1014.7
20260904185814 82 11 2.0 2.0 0.00 0.00 0.00 59 1014.8
20260904185310 81 352 1.0 1.0 0.00 0.00 0.00 64 1014.6
20260904184809 79 12 1.0 1.0 0.00 0.00 0.00 65 1014.8